Location: Breckenridge
(39.4820°N, 106.0380°W)
Time: 23:39:02
(UTC-06:00)

ISS - Pass Details

Date: 28 March 2019
Orbit: 408 x 410 km, 51.6° (Epoch: 26 April)

Event Time Altitude Azimuth Distance (km) Brightness Sun altitude
Rises 20:00:29 0° 285° (WNW) 2,326 2.6 -7.8°
Reaches altitude 10° 20:03:25 10° 314° (NW) 1,466 0.0 -8.3°
Maximum altitude 20:05:07 13° 345° (NNW) 1,280 -0.9 -8.7°
Drops below altitude 10° 20:06:50 10° 16° (NNE) 1,467 -1.0 -9.0°
Enters shadow 20:09:44 - 45° (NE) 2,319 -0.3 -9.5°
